[[{"header":{"parameterUnit":"m.s-1","parameterCategory":1,"la1":30.2991,"la2":30.254,"lo1":-89.0895,"lo2":-89.0444,"dy":0.0017,"dx":0.0017,"nx":28,"ny":28,"refTime":"2023-08-31T21:00:00:Z","depth":0,"parameterNumber":2,"parameterNumberName":"U-component_of_WINDS"},"data":[0,0,0,0,0,0,0,0,0,0,0,0,0,0,0,0,0,0,0,0,0,0,0,0,0,0,0,0,0,0,0,0,0,0,0,0,0,0,0,0,0,0,0,0,0,0,0,0,0,0,0,0,0,0,0,0,0,0,-2.5797,-2.5796,0,-2.5754,-2.5754,-2.5753,-2.5698,-2.5697,-2.5696,-2.5695,-2.5653,-2.5652,-2.5652,0,0,0,0,0,0,0,0,0,0,0,0,0,-2.583,-2.583,-2.5797,-2.5796,-2.5796,-2.5754,-2.5754,-2.5753,-2.5698,-2.5697,-2.5696,-2.5695,-2.5653,-2.5652,-2.5652,0,0,0,0,0,0,0,0,0,0,0,0,0,-2.5805,-2.583,-2.5797,-2.5763,-2.576,-2.5754,-2.5754,-2.5753,-2.5699,-2.5697,-2.5696,-2.5695,-2.5653,-2.5652,-2.5652,-2.5676,0,0,-2.5651,-2.565,0,0,0,0,0,0,0,0,-2.5806,-2.5804,-2.5769,-2.5766,-2.5762,-2.573,-2.575,-2.5727,-2.5699,-2.5722,-2.5695,-2.5694,-2.568,-2.5677,-2.5672,-2.5674,-2.5672,-2.565,-2.565,-2.565,-2.565,0,0,0,0,0,0,0,-2.5808,-2.5805,-2.578,-2.5768,-2.5764,-2.575,-2.5745,-2.5745,-2.5709,-2.572,-2.5716,-2.5711,-2.5677,-2.5672,-2.567,-2.5672,-2.565,-2.565,-2.565,-2.565,-2.569,-2.5691,0,0,0,0,0,0,-2.5815,-2.5807,-2.5781,-2.5779,-2.5781,-2.5751,-2.5745,-2.5742,-2.5709,-2.5702,-2.5713,-2.5709,-2.5674,-2.5671,-2.5669,-2.5693,-2.565,-2.565,-2.5649,-2.5688,-2.569,-2.5691,0,0,0,0,0,0,-2.5816,-2.5813,-2.5783,-2.5792,-2.5787,-2.5752,-2.5748,-2.5742,-2.5736,-2.5703,-2.5696,-2.5714,-2.5673,-2.5669,-2.5674,-2.5691,-2.5649,-2.5649,-2.5687,-2.5689,-2.5691,-2.5743,0,0,0,0,0,0,-2.5817,-2.5814,-2.5823,-2.5792,-2.5787,-2.579,-2.5749,-2.5742,-2.5736,-2.5731,-2.5703,-2.5697,-2.5671,-2.5675,-2.5674,-2.5689,-2.5649,-2.5685,-2.5688,-2.569,-2.574,-2.5747,-2.5753,0,0,0,0,0,-2.5818,-2.584,-2.5823,-2.5821,-2.5797,-2.5791,-2.5787,-2.5757,-2.5737,-2.5746,-2.5724,-2.5698,-2.569,-2.5676,-2.5674,-2.569,-2.5684,-2.5687,-2.569,-2.5737,-2.5745,-2.5753,0,0,0,0,0,0,-2.5874,-2.5835,-2.5817,-2.5829,-2.5813,-2.5781,-2.5791,-2.5767,-2.5757,-2.5753,-2.5716,-2.571,-2.5719,-2.5705,-2.5691,-2.5711,-2.5683,-2.5685,-2.5719,-2.5727,-2.5733,-2.5736,-2.5648,0,0,0,0,0,-2.5887,-2.5885,-2.5852,-2.5866,-2.5859,-2.5827,-2.5823,-2.5801,-2.5783,-2.5776,-2.5755,-2.5739,-2.5733,-2.5729,-2.5722,-2.5738,-2.573,-2.5748,-2.5754,-2.576,-2.5762,-2.5768,-2.5775,-2.5701,-2.5701,-2.5701,0,0,-2.5915,-2.5894,-2.5895,-2.5876,-2.5862,-2.586,-2.5821,-2.5822,-2.582,-2.5776,-2.5779,-2.5763,-2.5743,-2.5753,-2.5756,-2.5741,-2.5781,-2.5764,-2.5768,-2.5767,-2.5771,-2.5778,-2.5785,-2.5703,-2.5703,-2.5702,0,0,-2.5965,-2.5949,-2.5958,-2.5944,-2.5922,-2.5901,-2.5903,-2.5874,-2.5862,-2.5864,-2.5831,-2.5828,-2.5818,-2.5805,-2.5796,-2.584,-2.5815,-2.5839,-2.5872,-2.5878,-2.5884,-2.5889,-2.5902,-2.5908,-2.5842,-2.5842,-2.5842,0,-2.6002,-2.5998,-2.5966,-2.5968,-2.596,-2.592,-2.5929,-2.5917,-2.5894,-2.5889,-2.5873,-2.5859,-2.5842,-2.5848,-2.5858,-2.5854,-2.5854,-2.5841,-2.5886,-2.589,-2.5894,-2.5907,-2.5913,-2.5845,-2.5844,-2.5844,-2.5844,0,-2.6045,-2.6043,-2.6053,-2.603,-2.6024,-2.6029,-2.5997,-2.5995,-2.5973,-2.5953,-2.5955,-2.5934,-2.5921,-2.5921,-2.59,-2.5923,-2.5914,-2.5892,-2.5863,-2.5905,-2.5916,-2.5921,-2.5849,-2.5848,-2.5847,-2.5846,0,0,-2.6127,-2.6087,-2.6091,-2.608,-2.6053,-2.605,-2.6053,-2.604,-2.6037,-2.6023,-2.6024,-2.6016,-2.5995,-2.5986,-2.5964,-2.5969,-2.6003,-2.5946,-2.5945,-2.5956,-2.6024,-2.6039,-2.6046,-2.5986,-2.5987,-2.5988,-2.6025,0,-2.6171,-2.6173,-2.6144,-2.6154,-2.6151,-2.6113,-2.6116,-2.6099,-2.608,-2.6075,-2.6054,-2.6048,-2.6022,-2.6016,-2.602,-2.5998,-2.6016,-2.5995,-2.5986,-2.5986,-2.599,-2.6052,-2.6068,-2.6104,-2.603,-2.603,-2.6031,0,-2.6221,-2.6209,-2.6219,-2.619,-2.6187,-2.619,-2.6174,-2.617,-2.615,-2.6136,-2.6125,-2.6099,-2.6099,-2.6073,-2.6072,-2.6059,-2.6053,-2.6042,-2.6042,-2.6039,-2.601,-2.6049,-2.6115,-2.612,-2.6038,-2.6037,-2.6037,0,-2.6278,-2.6264,-2.6268,-2.626,-2.6227,-2.6229,-2.6215,-2.6194,-2.6187,-2.6174,-2.6169,-2.6156,-2.6149,-2.6139,-2.611,-2.6094,-2.6112,-2.6084,-2.6099,-2.61,-2.6104,-2.6103,-2.6169,-2.6103,-2.6103,-2.6103,-2.6103,0,-2.6329,-2.6336,-2.6293,-2.6295,-2.6301,-2.6268,-2.6275,-2.6258,-2.6239,-2.6236,-2.6204,-2.6202,-2.6165,-2.6159,-2.6136,-2.6138,-2.6135,-2.6123,-2.6117,-2.6125,-2.6126,-2.612,-2.6116,-2.6104,-2.6104,-2.6104,-2.6104,0,-2.6393,-2.6365,-2.6366,-2.6334,-2.6326,-2.6332,-2.6305,-2.6305,-2.6284,-2.6281,-2.6279,-2.6246,-2.6237,-2.6207,-2.6192,-2.6176,-2.6184,-2.6173,-2.6191,-2.6186,-2.6203,-2.6201,-2.6265,-2.6271,-2.6204,-2.6204,-2.6205,0,-2.6426,-2.6431,-2.6399,-2.6395,-2.6382,-2.6377,-2.6369,-2.6336,-2.633,-2.6307,-2.631,-2.6298,-2.6287,-2.6274,-2.6249,-2.6236,-2.6223,-2.6247,-2.6221,-2.6229,-2.6221,-2.6221,-2.622,-2.6252,-2.6253,-2.6253,-2.6254,0,-2.6487,-2.6473,-2.6464,-2.6449,-2.6441,-2.6429,-2.6414,-2.6413,-2.6376,-2.637,-2.636,-2.6352,-2.6335,-2.6323,-2.6306,-2.6291,-2.6266,-2.6262,-2.6265,-2.6273,-2.6282,-2.6275,-2.6204,-2.6261,-2.626,-2.626,-2.6259,-2.6259,-2.6536,-2.6537,-2.6515,-2.6505,-2.6491,-2.6478,-2.6476,-2.6454,-2.6446,-2.6429,-2.641,-2.6402,-2.6381,-2.6355,-2.6342,-2.6335,-2.6322,-2.6326,-2.6327,-2.6328,-2.6331,-2.6284,-2.6332,-2.6332,-2.6332,-2.6332,-2.6332,0,-2.6594,-2.6577,-2.6569,-2.6549,-2.6541,-2.6519,-2.6501,-2.6496,-2.6489,-2.6472,-2.6461,-2.6449,-2.6437,-2.6411,-2.6396,-2.6396,-2.6384,-2.6393,-2.6392,-2.6388,-2.6345,-2.6343,-2.6403,-2.6403,-2.6403,-2.6403,-2.6403,-2.6403,-2.6623,-2.6623,-2.6606,-2.6599,-2.6583,-2.6575,-2.6566,-2.6554,-2.6539,-2.6527,-2.6517,-2.65,-2.6478,-2.6462,-2.645,-2.6442,-2.6437,-2.645,-2.6439,-2.6398,-2.6392,-2.6385,-2.6383,-2.645,-2.645,-2.6482,-2.6482,-2.6483]},{"header":{"parameterUnit":"m.s-1","parameterCategory":1,"la1":30.2991,"la2":30.254,"lo1":-89.0895,"lo2":-89.0444,"dy":0.0017,"dx":0.0017,"nx":28,"ny":28,"refTime":"2023-08-31T21:00:00:Z","depth":0,"parameterNumber":3,"parameterNumberName":"V-component_of_WINDS"},"data":[0,0,0,0,0,0,0,0,0,0,0,0,0,0,0,0,0,0,0,0,0,0,0,0,0,0,0,0,0,0,0,0,0,0,0,0,0,0,0,0,0,0,0,0,0,0,0,0,0,0,0,0,0,0,0,0,0,0,0.3905,0.3907,0,0.4073,0.4075,0.4076,0.4121,0.412,0.4119,0.4118,0.4292,0.4298,0.4303,0,0,0,0,0,0,0,0,0,0,0,0,0,0.3626,0.3631,0.3905,0.3907,0.3909,0.4072,0.4075,0.4077,0.4121,0.412,0.4119,0.4117,0.4291,0.4297,0.4304,0,0,0,0,0,0,0,0,0,0,0,0,0,0.3766,0.3632,0.3905,0.3951,0.3956,0.4072,0.4075,0.4078,0.4121,0.412,0.4118,0.4117,0.4288,0.4296,0.4305,0.4387,0,0,0.433,0.4334,0,0,0,0,0,0,0,0,0.3758,0.3776,0.3942,0.3948,0.3954,0.4074,0.404,0.4181,0.4122,0.4059,0.4118,0.4116,0.4221,0.4235,0.427,0.4395,0.4403,0.4331,0.4336,0.434,0.4342,0,0,0,0,0,0,0,0.3748,0.3769,0.3971,0.3944,0.3952,0.3964,0.3982,0.4067,0.4147,0.4064,0.4068,0.4087,0.4224,0.4262,0.4274,0.4405,0.4331,0.4338,0.4344,0.4347,0.4609,0.4611,0,0,0,0,0,0,0.373,0.3761,0.3966,0.3976,0.385,0.397,0.3991,0.4037,0.4146,0.4161,0.4088,0.4088,0.4248,0.4264,0.4281,0.4386,0.434,0.4348,0.4352,0.4607,0.4609,0.4611,0,0,0,0,0,0,0.3724,0.3748,0.3959,0.387,0.3897,0.3977,0.4029,0.4041,0.4079,0.4164,0.4178,0.4111,0.4248,0.4269,0.4361,0.4392,0.4351,0.4359,0.4605,0.4608,0.461,0.4596,0,0,0,0,0,0,0.3716,0.3745,0.3777,0.387,0.3902,0.4035,0.4031,0.4046,0.4093,0.4095,0.419,0.4204,0.4248,0.4348,0.4369,0.4403,0.4366,0.4602,0.4606,0.4609,0.4594,0.4598,0.4601,0,0,0,0,0,0.3705,0.3766,0.3778,0.3803,0.3943,0.4037,0.4056,0.4104,0.4095,0.4128,0.4183,0.4201,0.4385,0.4357,0.4381,0.4418,0.46,0.4605,0.4609,0.4592,0.4597,0.4601,0,0,0,0,0,0,0.3675,0.3779,0.3794,0.3886,0.3952,0.4044,0.4087,0.4108,0.4179,0.4178,0.4236,0.4257,0.4345,0.4391,0.4357,0.4505,0.4493,0.4502,0.4472,0.4477,0.4481,0.4469,0.4373,0,0,0,0,0,0.3679,0.3746,0.3834,0.3907,0.3939,0.4007,0.405,0.4082,0.4154,0.4182,0.4243,0.4313,0.4387,0.4434,0.4507,0.46,0.4622,0.4638,0.4641,0.4644,0.4652,0.4706,0.4715,0.4625,0.4625,0.4625,0,0,0.3688,0.3753,0.3792,0.3902,0.3958,0.4027,0.4031,0.4104,0.4156,0.4194,0.4284,0.4331,0.4413,0.4506,0.455,0.4547,0.4681,0.4649,0.4651,0.4658,0.4712,0.472,0.4728,0.4628,0.4628,0.4627,0,0,0.3741,0.3796,0.3864,0.3919,0.4002,0.4047,0.4063,0.4153,0.4185,0.4277,0.4307,0.437,0.4496,0.4553,0.4599,0.4673,0.4694,0.4695,0.4715,0.4768,0.4775,0.4782,0.481,0.482,0.4703,0.4703,0.4703,0,0.3742,0.3847,0.3896,0.3968,0.4017,0.4052,0.4123,0.4174,0.4277,0.431,0.4304,0.4463,0.452,0.4628,0.4646,0.4681,0.4703,0.4686,0.477,0.4777,0.4784,0.4812,0.4822,0.4702,0.4702,0.4702,0.4702,0,0.3846,0.3918,0.3963,0.4061,0.4114,0.4184,0.4245,0.4294,0.4321,0.4366,0.446,0.453,0.4618,0.4646,0.4673,0.4758,0.4754,0.4758,0.4748,0.4791,0.4819,0.483,0.4702,0.4702,0.4702,0.4702,0,0,0.3885,0.4009,0.4025,0.4071,0.4165,0.4223,0.4295,0.438,0.4421,0.4491,0.4555,0.466,0.4665,0.4717,0.4751,0.4796,0.4853,0.4796,0.4799,0.4806,0.4954,0.4952,0.4963,0.4866,0.4869,0.487,0.4948,0,0.3951,0.4081,0.4128,0.4236,0.4304,0.4339,0.4403,0.4468,0.4513,0.4579,0.4628,0.4703,0.4703,0.4734,0.4781,0.4836,0.4884,0.4831,0.4928,0.4931,0.4909,0.4977,0.4975,0.5045,0.4959,0.4961,0.4962,0,0.4045,0.4116,0.423,0.4318,0.4348,0.4404,0.4487,0.4548,0.4624,0.4653,0.4711,0.4742,0.4821,0.4804,0.4915,0.4878,0.492,0.4953,0.4957,0.497,0.495,0.4994,0.5068,0.5079,0.4979,0.4978,0.4976,0,0.4065,0.4189,0.4274,0.4311,0.4414,0.4453,0.4498,0.4572,0.4621,0.4693,0.4726,0.4806,0.4851,0.4913,0.4966,0.4949,0.5072,0.506,0.5101,0.51,0.5127,0.5125,0.5211,0.515,0.515,0.515,0.515,0,0.4135,0.4204,0.4284,0.4336,0.4416,0.4469,0.4546,0.4593,0.4659,0.4722,0.4757,0.4816,0.488,0.4948,0.499,0.5076,0.5096,0.5123,0.5134,0.5121,0.5118,0.5151,0.5149,0.5153,0.5152,0.5152,0.5151,0,0.4171,0.4227,0.4322,0.4412,0.4436,0.4491,0.4568,0.4621,0.4667,0.4747,0.4769,0.4842,0.4923,0.4981,0.5086,0.5114,0.5208,0.5217,0.5183,0.5188,0.5227,0.5223,0.5339,0.5358,0.5282,0.5283,0.5283,0,0.4213,0.4267,0.4363,0.4407,0.4452,0.4523,0.4573,0.4627,0.4678,0.4769,0.4811,0.4895,0.4965,0.5094,0.5157,0.5238,0.5251,0.5286,0.5264,0.525,0.5255,0.5252,0.5258,0.529,0.5291,0.5291,0.5291,0,0.4283,0.4308,0.4377,0.4458,0.4516,0.4582,0.4648,0.4683,0.4749,0.4804,0.4888,0.4942,0.505,0.5133,0.522,0.5268,0.5292,0.5298,0.5312,0.5301,0.528,0.5294,0.5194,0.5295,0.5295,0.5295,0.5294,0.5294,0.4325,0.4375,0.445,0.4528,0.4583,0.4644,0.4699,0.4751,0.4822,0.4913,0.4941,0.5028,0.5104,0.5223,0.5272,0.5342,0.534,0.536,0.5366,0.5371,0.5371,0.5266,0.5358,0.5358,0.5358,0.5358,0.5358,0,0.4398,0.4448,0.4518,0.461,0.4671,0.4686,0.476,0.4811,0.4887,0.4955,0.5023,0.512,0.5201,0.527,0.5355,0.5398,0.5411,0.5418,0.5417,0.5428,0.5367,0.5347,0.5406,0.5406,0.5406,0.5406,0.5406,0.5406,0.4443,0.453,0.4564,0.4679,0.4729,0.4814,0.4855,0.4913,0.4967,0.5074,0.5141,0.5185,0.5254,0.5344,0.542,0.5439,0.5469,0.5475,0.5496,0.5438,0.5432,0.5427,0.5409,0.548,0.548,0.5552,0.5552,0.5553]}]]